Location: Kr�le Nowe
(50.4333°N, 22.7833°E)
Time: 01:08:57
(UTC+00:00)

Daily predictions for brighter satellites

Satellite Brightness Start Highest point End
(mag) Time Altitude Azimuth Time Altitude Azimuth Time Altitude Azimuth
STARLINK-1234 3.0 00:00:00 10° WNW 00:03:01 46° SSW 00:05:56 11° SE
STARLINK-1212 2.8 00:01:19 10° WNW 00:04:24 57° SSW 00:07:26 10° SE
STARLINK-1105 2.8 00:01:48 10° WNW 00:04:51 56° SSW 00:07:54 10° SE
STARLINK-1209 3.2 00:02:05 10° WNW 00:05:06 43° SSW 00:06:55 20° SSE
STARLINK-1247 2.8 00:02:42 10° WNW 00:05:47 56° SSW 00:08:50 10° SE
ATLAS CENTAUR R/B 1.3 00:03:40 10° WNW 00:06:07 85° SSW 00:11:15 10° SE
STARLINK-1227 2.8 00:03:11 10° WNW 00:06:13 55° SSW 00:09:15 10° SE
STARLINK-1208 3.6 00:02:12 10° WNW 00:06:22 85° NNE 00:10:31 10° ESE
STARLINK-1226 2.9 00:04:02 10° WNW 00:07:05 54° SSW 00:10:08 10° SE
Cosmos 1898 Rocket 4.4 00:02:09 10° NNW 00:07:23 51° ENE 00:12:34 10° SE
STARLINK-52 3.9 00:07:16 29° SSE 00:07:48 31° SE 00:10:42 10° E
STARLINK-1215 2.9 00:04:58 10° WNW 00:08:02 54° SSW 00:11:05 10° SE
STARLINK-1225 4.2 00:04:23 10° WNW 00:08:30 60° N 00:12:37 10° E
CZ-4C R/B 4.1 00:06:24 10° SE 00:09:19 15° ESE 00:12:30 10° ENE
STARLINK-1217 2.9 00:06:44 10° WNW 00:09:48 52° SSW 00:12:50 10° SE
STARLINK-1229 2.9 00:07:40 10° WNW 00:10:43 51° SSW 00:13:45 10° SE
STARLINK-1271 3.6 00:07:12 10° WNW 00:11:22 89° NNE 00:15:31 10° ESE
STARLINK-1270 2.9 00:08:31 10° WNW 00:11:35 51° SSW 00:14:37 10° SE
Cosmos 2058 Rocket 4.0 00:07:49 10° NNW 00:11:48 34° W 00:13:46 23° SW
Meteor 1-29 4.5 00:09:10 10° N 00:12:01 25° WNW 00:13:32 18° WSW
SL-08 ROCKET BODY 4.3 00:08:22 20° S 00:12:34 88° E 00:18:27 10° N
Lacrosse 4 Rocket 3.8 00:09:04 10° NNW 00:12:50 27° NE 00:16:31 10° E
STARLINK-1189 3.0 00:10:22 10° WNW 00:13:24 49° SSW 00:16:27 10° SE
STARLINK-1230 4.2 00:09:22 10° WNW 00:13:29 60° N 00:17:36 10° E
STARLINK-1188 3.0 00:11:15 10° WNW 00:14:18 49° SSW 00:17:20 10° SE
STARLINK-1235 3.2 00:11:59 10° WNW 00:14:55 39° SSW 00:17:51 10° SE
STARLINK-1187 3.1 00:12:23 10° WNW 00:15:21 43° SSW 00:18:19 10° SE
COSMOS 2455 3.1 00:11:39 18° SW 00:16:13 65° NW 00:22:15 10° NNE
STARLINK-1154 3.5 00:12:11 10° WNW 00:16:21 88° SSW 00:20:30 10° ESE
SJ 16-02 1.9 00:11:59 10° NNW 00:16:24 61° ENE 00:20:47 10° SE
STARLINK-1191 3.0 00:13:44 10° WNW 00:16:44 46° SSW 00:19:44 10° SE
STARLINK-1221 3.0 00:14:37 10° WNW 00:17:37 46° SSW 00:20:36 10° SE
Cosmos 2084 4.1 00:15:46 23° S 00:18:14 46° SE 00:22:31 10° NE
STARLINK-1243 4.2 00:14:22 10° WNW 00:18:29 61° N 00:22:36 10° E
STARLINK-1222 3.0 00:15:31 10° WNW 00:18:30 45° SSW 00:21:29 10° SE
Meteor 2-10 Rocket 3.8 00:13:57 10° N 00:19:21 71° ENE 00:24:30 10° SSE
STARLINK-1214 3.1 00:16:26 10° WNW 00:19:25 44° SSW 00:22:23 10° SE
Starlink 7 placeholder 1.5 00:19:27 84° ESE 00:19:27 84° ESE 00:21:24 10° ENE
SL-14 R/B 4.1 00:18:39 23° SW 00:20:34 38° WNW 00:24:13 10° N
STARLINK-1197 3.5 00:17:09 10° WNW 00:21:20 85° SSW 00:25:28 10° ESE
Cosmos 1709 Rocket 4.3 00:17:08 14° S 00:22:26 64° E 00:28:30 10° NNE
Cosmos 1386 Rocket 4.4 00:18:10 19° SSW 00:22:39 82° W 00:28:51 10° N
STARLINK-1236 4.1 00:19:21 10° WNW 00:23:29 61° N 00:27:36 10° E
Cosmos 1300 3.8 00:20:14 10° NNW 00:23:35 29° W 00:25:04 22° SW
Cosmos 1174 4.4 00:23:33 18° WSW 00:25:38 42° NW 00:29:20 10° NNE
Cosmos 921 Rocket 3.1 00:23:34 23° SW 00:26:09 67° WNW 00:30:27 10° NNE
STARLINK-1198 3.5 00:22:07 10° WNW 00:26:16 81° SSW 00:30:25 10° ESE
BREEZE M DEB (TANK) 2.5 00:26:49 23° WSW 00:27:57 41° SSW 00:31:53 10° ESE
STARLINK-1199 3.5 00:27:08 10° WNW 00:31:17 77° SSW 00:35:25 10° ESE
Cosmos 1626 Rocket 3.7 00:29:36 21° SSW 00:32:19 61° WNW 00:36:39 10° N
Cosmos 2219 3.2 00:27:40 10° NNW 00:33:19 67° WSW 00:38:53 10° SSE
STARLINK-1269 4.1 00:29:19 10° WNW 00:33:27 63° N 00:37:34 10° E
STARLINK-1210 3.5 00:32:06 10° WNW 00:36:14 73° SSW 00:40:22 10° ESE
Cosmos 1626 3.6 00:34:31 16° WSW 00:36:28 25° WNW 00:39:35 10° NNW
Cosmos 1980 Rocket 4.4 00:34:42 10° SE 00:38:20 18° E 00:42:00 10° ENE
STARLINK-1200 4.1 00:34:20 10° WNW 00:38:28 65° N 00:42:35 10° E
STARLINK-60 2.9 00:36:27 18° WSW 00:38:40 90° NNW 00:41:53 10° ENE
Nadezhda 1 Rocket 4.4 00:35:13 10° NNW 00:41:03 46° W 00:45:52 15° SSW
STARLINK-1219 3.5 00:37:05 10° WNW 00:41:13 70° SSW 00:45:20 10° ESE
STARLINK-1192 4.0 00:39:19 10° WNW 00:43:28 66° N 00:47:35 10° E
STARLINK-1320 4.4 00:42:44 18° S 00:43:59 23° SE 00:46:32 10° E
STARLINK-1322 4.4 00:43:03 18° S 00:44:19 23° SE 00:46:53 10° E
STARLINK-1324 4.4 00:43:24 18° S 00:44:41 23° SE 00:47:14 10° E
FALCON 9 R/B 4.4 00:38:25 14° SW 00:44:51 36° S 01:07:26 10° ESE
STARLINK-1294 4.4 00:43:39 18° S 00:44:58 23° SE 00:47:32 10° E
STARLINK-1261 4.4 00:44:02 18° S 00:45:19 23° SE 00:47:54 10° E
Cosmos 192 4.4 00:41:36 17° SSW 00:45:28 79° ESE 00:50:28 10° NNE
STARLINK-1325 4.4 00:44:22 18° S 00:45:42 23° SE 00:48:16 10° E
STARLINK-1333 4.4 00:44:40 18° S 00:45:59 24° SE 00:48:34 10° E
STARLINK-1211 3.5 00:42:02 10° WNW 00:46:10 66° SSW 00:50:16 10° SE
STARLINK-1334 4.4 00:45:00 18° S 00:46:20 24° SE 00:48:55 10° E
STARLINK-1326 4.4 00:45:20 18° S 00:46:41 24° SE 00:49:16 10° E
STARLINK-1323 4.4 00:45:39 18° S 00:47:01 24° SE 00:49:36 10° E
UNK 4.4 00:44:01 17° SSW 00:47:07 38° W 00:51:27 10° NNW
STARLINK-1349 4.4 00:45:58 18° S 00:47:20 24° SE 00:49:57 10° E
Cosmos 1328 4.5 00:43:45 11° S 00:47:29 51° E 00:51:23 10° NNE
STARLINK-1336 4.4 00:46:20 18° S 00:47:43 24° SE 00:50:19 10° E
STARLINK-1331 4.4 00:46:37 18° S 00:48:01 24° SE 00:50:37 10° E
STARLINK-1344 4.3 00:46:57 18° S 00:48:21 24° SE 00:50:59 10° E
STARLINK-1244 4.0 00:44:17 10° WNW 00:48:25 68° N 00:52:34 10° E
STARLINK-1343 4.3 00:47:17 18° S 00:48:42 25° SE 00:51:19 10° E
Cosmos 2297 Rocket 2.2 00:43:22 10° NW 00:48:58 63° WSW 00:54:32 10° SSE
STARLINK-1346 4.3 00:47:35 18° S 00:49:03 25° SE 00:51:43 10° E
AQUA 3.8 00:44:31 10° NNE 00:49:18 83° WNW 00:53:18 15° SSW
STARLINK-1328 4.3 00:47:57 18° S 00:49:23 25° SE 00:52:01 10° E
Cosmos 220 Rocket 4.4 00:46:16 17° SW 00:49:28 57° WNW 00:53:52 10° NNE
STARLINK-1354 4.3 00:48:14 18° S 00:49:41 25° SE 00:52:19 10° E
STARLINK-1347 4.3 00:48:36 18° S 00:50:04 25° SE 00:52:42 10° E
STARLINK-1357 4.3 00:48:53 18° S 00:50:21 25° SE 00:53:00 10° E
STARLINK-1335 4.3 00:49:14 18° S 00:50:43 25° SE 00:53:22 10° E
CZ-4B R/B 3.6 00:45:39 10° NNE 00:50:47 79° WNW 00:55:16 14° SSW
STARLINK-1327 4.3 00:49:33 18° S 00:51:02 25° SE 00:53:41 10° E
Cosmos 1812 Rocket 4.1 00:46:50 10° NNW 00:51:06 44° W 00:54:30 15° SSW
STARLINK-1245 3.6 00:47:02 10° WNW 00:51:09 62° SSW 00:55:14 10° SE
ERS-2 3.4 00:47:42 10° SE 00:51:10 42° ENE 00:54:40 10° N
ERBS 4.3 00:48:08 10° NW 00:51:10 31° NNE 00:54:13 10° E
STARLINK-1340 4.3 00:49:53 18° S 00:51:23 26° SE 00:54:03 10° E
STARLINK-1356 4.3 00:50:13 18° S 00:51:44 26° SE 00:54:24 10° E
STARLINK-1345 4.3 00:50:33 18° S 00:52:04 26° SE 00:54:44 10° E
STARLINK-1355 4.3 00:50:51 18° S 00:52:24 26° SE 00:55:04 10° E
Cosmos 2082 3.9 00:46:55 10° NNW 00:52:38 79° ENE 00:58:16 10° SSE
STARLINK-1321 4.2 00:51:10 18° S 00:52:43 26° SE 00:55:24 10° E
STARLINK-1358 4.2 00:51:31 18° S 00:53:05 26° SE 00:55:46 10° E
STARLINK-1332 4.2 00:51:49 18° S 00:53:24 26° SE 00:56:05 10° E
STARLINK-1138 3.9 00:49:16 10° WNW 00:53:25 69° NNE 00:57:33 10° E
STARLINK-1348 4.2 00:52:10 17° S 00:53:45 27° SE 00:56:27 10° E
SL-4 R/B 2.3 00:49:12 11° WSW 00:53:56 84° SSE 00:58:36 10° ENE
STARLINK-1374 4.5 00:51:59 17° SSW 00:53:58 28° SE 00:57:02 10° E
STARLINK-1330 4.2 00:52:29 17° S 00:54:04 27° SE 00:56:46 10° E
Cosmos 1437 4.4 00:52:48 14° WSW 00:54:21 20° WNW 00:56:41 10° NNW
STARLINK-1363 4.2 00:52:48 17° S 00:54:24 27° SE 00:57:06 10° E
STARLINK-1337 4.2 00:53:07 17° S 00:54:44 27° SE 00:57:27 10° E
STARLINK-1342 4.2 00:53:27 17° S 00:55:05 27° SE 00:57:48 10° E
STARLINK-1364 4.2 00:53:47 17° S 00:55:25 27° SE 00:58:08 10° E
STARLINK-1376 4.2 00:54:07 17° SSW 00:55:46 27° SE 00:58:29 10° E
STARLINK-1360 4.2 00:54:22 17° SSW 00:56:02 28° SE 00:58:46 10° E
STARLINK-1339 4.4 00:54:00 16° SSW 00:56:03 29° SE 00:59:07 10° E
STARLINK-1203 4.0 00:51:52 10° WNW 00:56:05 71° NNE 01:00:17 10° E
STARLINK-1233 3.6 00:52:01 10° WNW 00:56:06 58° SSW 01:00:11 10° SE
STARLINK-1361 4.2 00:54:48 17° SSW 00:56:28 28° SE 00:59:12 10° E
Cosmos 990 Rocket 4.0 00:51:24 10° NNW 00:56:40 70° WSW 01:01:52 10° SSE
STARLINK-1367 4.2 00:55:02 17° SSW 00:56:45 28° SE 00:59:31 10° E
STARLINK-1366 4.1 00:55:25 17° SSW 00:57:07 28° SE 00:59:51 10° E
CBERS-1 4.1 00:52:04 10° NNE 00:57:14 83° ESE 01:02:06 11° SSW
STARLINK-1377 4.4 00:56:00 16° SSW 00:58:07 29° SE 01:01:13 10° E
STARLINK-1143 3.9 00:54:15 10° WNW 00:58:24 71° NNE 01:02:33 10° E
STARLINK-1353 4.3 00:57:56 16° SSW 01:00:06 30° SE 01:03:12 10° E
SL-16 R/B 3.2 00:56:01 13° SSW 01:00:58 37° W 01:06:38 10° NNW
STARLINK-1204 3.7 00:57:01 10° WNW 01:01:05 55° SSW 01:05:08 10° SE
ATLAS CENTAUR R/B 2.7 00:57:08 10° WSW 01:01:06 34° NW 01:04:50 10° NNE
STARLINK-1375 4.3 00:59:43 16° SSW 01:01:57 31° SE 01:05:05 10° E
Alouette 2 Rocket 4.3 00:55:30 10° NNW 01:02:21 61° W 01:06:51 10° S
STARLINK-1241 3.9 00:59:14 10° WNW 01:03:23 73° NNE 01:07:32 10° E
STARLINK-1350 4.2 01:01:59 15° SSW 01:04:18 32° SE 01:07:27 10° E
Cosmos 2263 Rocket 4.2 00:59:25 10° NNW 01:04:28 32° NE 01:09:27 10° ESE
BREEZE-M R/B 2.7 01:01:07 13° WSW 01:04:35 47° SSE 01:07:13 10° E
FALCON 9 DEB 3.3 01:02:08 16° SW 01:04:44 59° SSE 01:08:10 10° ENE
Cosmos 1602 Rocket 4.3 01:01:58 15° SW 01:05:12 38° WNW 01:09:16 10° N
Cosmos 1825 Rocket 3.5 01:01:14 12° S 01:05:17 88° W 01:09:39 10° N
STARLINK-1238 3.7 01:01:59 10° WNW 01:06:01 52° SSW 01:10:02 10° SE
Cosmos 1455 2.6 01:02:31 10° NNW 01:06:07 44° W 01:09:23 12° SSW
STARLINK-1352 4.2 01:04:09 15° SSW 01:06:34 34° SE 01:09:48 10° E
STARLINK-29 2.9 01:04:34 13° WSW 01:07:19 84° SSE 01:10:31 10° ENE
ATLAS 3B R/B 3.9 01:03:09 10° WNW 01:07:59 21° WSW 01:12:42 11° SSW
STARLINK-1239 3.8 01:04:13 10° WNW 01:08:22 76° NNE 01:12:31 10° ESE
STARLINK-1368 4.1 01:06:13 15° SSW 01:08:43 35° SE 01:11:58 10° ENE
IRS-1D 3.6 01:04:39 10° NNE 01:10:02 79° WNW 01:15:16 10° SSW
Cosmos 841 Rocket 4.5 01:05:17 10° S 01:10:14 44° ESE 01:15:11 10° NE
Meteor 1-28 Rocket 3.7 01:06:52 10° SSE 01:10:35 63° ENE 01:14:20 10° N
BREEZE-M DEB (TANK) 3.0 01:09:30 17° SSW 01:10:38 28° SSE 01:13:14 10° E
STARLINK-1369 4.1 01:08:12 15° SSW 01:10:45 36° SE 01:14:00 10° ENE
STARLINK-1201 3.8 01:07:00 10° WNW 01:11:00 48° SSW 01:14:59 10° SE
GP-B 3.4 01:07:35 10° N 01:11:56 54° W 01:16:10 10° SSW
STARLINK-1372 4.0 01:10:25 14° SSW 01:13:04 37° SSE 01:16:22 10° ENE
STARLINK-1240 3.8 01:09:13 10° WNW 01:13:22 78° NNE 01:17:31 10° ESE
Cosmos 2184 Rocket 4.4 01:09:06 10° S 01:15:10 63° E 01:21:15 10° NNE
STARLINK-1378 4.0 01:12:32 14° SSW 01:15:16 39° SSE 01:18:36 10° ENE
BREEZE-M DEB (TANK) 0.9 01:12:56 10° W 01:15:19 75° S 01:17:58 10° E
Cosmos-2242 3.2 01:11:34 10° NNW 01:15:45 53° W 01:19:53 10° S
STARLINK-1329 4.0 01:12:59 14° SSW 01:15:45 39° SSE 01:19:05 10° ENE
STARLINK-1206 3.9 01:11:59 10° WNW 01:15:57 45° SSW 01:19:56 10° SE
COBE Rocket 4.1 01:11:16 10° SSE 01:16:12 79° ENE 01:21:18 10° N
STARLINK-1365 3.9 01:13:46 14° SW 01:16:34 41° SSE 01:19:55 10° ENE
STARLINK-1379 3.9 01:14:39 13° SW 01:17:28 40° SSE 01:20:49 10° ENE
Cosmos 2221 4.0 01:13:33 10° N 01:17:38 39° ENE 01:21:43 10° SE
STARLINK-1362 3.9 01:15:10 13° SW 01:18:01 40° SSE 01:21:22 10° ENE
Cosmos 1400 Rocket 3.0 01:14:02 10° N 01:18:10 78° ENE 01:22:17 10° SSE
STARLINK-1216 3.7 01:14:11 10° WNW 01:18:21 81° NNE 01:22:30 10° ESE
STARLINK-1373 3.9 01:17:22 13° SW 01:20:18 42° SSE 01:23:41 10° ENE
STARLINK-1205 4.0 01:16:59 10° WNW 01:20:55 42° SW 01:24:51 10° SE
SL-08 R/B 3.3 01:17:33 10° S 01:22:13 66° WSW 01:26:52 10° NNW
Cosmos 2181 Rocket 4.2 01:16:00 10° NNW 01:22:15 57° W 01:28:32 10° S
STARLINK-1390 3.8 01:19:27 12° SW 01:22:27 43° SSE 01:25:50 10° ENE
RESURS DK-1 3.9 01:19:45 10° WSW 01:23:18 27° NW 01:26:52 10° NNE
STARLINK-1237 3.7 01:19:11 10° WNW 01:23:20 84° NNE 01:27:30 10° ESE
Cosmos 2227 Rocket 2.7 01:19:08 10° NW 01:24:25 40° WSW 01:29:39 10° S
IRS-P3 4.2 01:19:29 10° NNE 01:24:51 83° WNW 01:30:11 10° SSW
CZ-2D R/B 3.1 01:20:36 10° N 01:25:20 35° WNW 01:30:02 10° SW
STARLINK-1218 4.0 01:21:58 10° WNW 01:25:51 40° SW 01:29:44 10° SE
CZ-4C R/B 3.6 01:24:17 10° SSE 01:27:50 62° ENE 01:31:27 10° N
ADEOS II 2.2 01:23:02 10° NNE 01:28:18 72° WNW 01:33:32 10° SSW
STARLINK-1202 3.7 01:24:10 10° WNW 01:28:20 87° NNE 01:32:29 10° ESE
Cosmos 1763 Rocket 3.5 01:23:50 10° SSW 01:28:58 79° WNW 01:34:05 10° NNE
Cosmos 1697 Rocket 2.9 01:23:39 10° SSW 01:29:17 72° ESE 01:34:57 10° NNE
Cosmos 1703 3.7 01:26:51 10° SSW 01:30:42 50° WNW 01:34:35 10° N
STARLINK-1254 4.1 01:26:59 10° WNW 01:30:49 37° SW 01:34:39 10° SSE
ATLAS 2AS CENTAUR R/B 4.2 01:26:41 10° W 01:34:06 39° NNW 01:41:18 10° NE
Resurs 1-4 Rocket 3.3 01:30:30 10° N 01:35:01 29° WNW 01:39:32 10° WSW
STARLINK-1231 4.2 01:32:01 10° WNW 01:35:48 35° SW 01:39:34 10° SSE
Cosmos 1315 Rocket 3.9 01:34:16 10° N 01:38:05 48° ENE 01:41:53 10° SSE
STARLINK-1246 3.6 01:34:07 10° WNW 01:38:17 86° SSW 01:42:27 10° ESE
ARIANE 5 R/B 2.5 01:35:21 10° NNE 01:40:28 86° WNW 01:45:30 10° SSW
CZ-2C R/B 3.7 01:36:58 10° NNE 01:40:32 43° E 01:44:06 10° S
STARLINK-1232 4.3 01:37:01 10° WNW 01:40:45 32° SW 01:44:27 10° SSE
STARLINK-1224 3.6 01:39:06 10° WNW 01:43:16 82° SSW 01:47:25 10° ESE
STARLINK-52 3.2 01:40:34 10° W 01:43:47 71° NNW 01:46:59 10° ENE
H-2A R/B 2.1 01:40:36 10° S 01:44:54 71° WSW 01:49:21 10° NNW
STARLINK-1208 4.4 01:42:01 10° W 01:45:40 30° SW 01:49:19 10° SSE
Spot 4 Rocket 4.2 01:41:02 10° NNE 01:46:13 80° ESE 01:51:21 10° SSW
Meteor 1-27 4.2 01:41:11 10° NNW 01:46:46 74° W 01:52:17 10° S
Cosmos 2154 Rocket 4.4 01:40:53 10° S 01:47:08 70° E 01:53:21 10° NNE
STARLINK-1225 3.6 01:44:06 10° WNW 01:48:15 78° SSW 01:52:24 10° ESE
Cosmos 1898 Rocket 4.5 01:44:41 10° NW 01:49:13 29° W 01:53:42 10° SSW
STARLINK-1271 4.5 01:47:03 10° W 01:50:38 28° SW 01:54:12 10° SSE
Cosmos 2298 Rocket 4.1 01:46:11 10° NNW 01:51:32 86° WSW 01:56:50 10° SSE
